Hourly Data Report for September 17, 2017

All times are specified in Local Standard Time (LST). Add 1 hour to adjust for Daylight Saving Time where and when it is observed.

EAST POINT (AUT)
PRINCE EDWARD ISLAND

46°27'36.000" N
61°59'18.000" W
7.70 m
8300418
71412
WEP

Download Data

Hourly Data (September 2017)
Hourly Data Report for September 17, 2017
Temp Definition
°C
Dew Point Temp Definition
°C
Rel Hum Definition
%
Wind Dir Definition
10's deg

Wind Spd Definition
km/h
Visibility Definition
km
Stn Press Definition
kPa
Hmdx Definition


Wind Chill Definition


Weather Definition


TIME
00:00 15.3 11.7 79 3 21   102.11     LegendNANA
01:00 15.2 11.7 80 3 18   102.10     LegendNANA
02:00 15.2 11.7 80 3 17   102.08     LegendNANA
03:00 15.2 11.5 79 3 14   102.05     LegendNANA
04:00 15.1 11.4 79 2 14   102.08     LegendNANA
05:00 15.0 11.0 77 3 11   102.13     LegendNANA
06:00 15.2 11.1 77 2 11   102.16     LegendNANA
07:00 15.4 10.9 74 3 14   102.20     LegendNANA
08:00 15.4 10.9 75 4 12   102.24     LegendNANA
09:00 15.4 11.1 76 5 12   102.23     LegendNANA
10:00 15.5 11.0 74 5 10   102.26     LegendNANA
11:00 15.6 11.1 75 5 10   102.30     LegendNANA
12:00 15.8 11.0 73 6 11   102.22     LegendNANA
13:00 15.9 10.6 71 7 10   102.18     LegendNANA
14:00 15.7 11.1 74 5 11   102.13     LegendNANA
15:00 15.4 11.3 77 5 9   102.16     LegendNANA
16:00 15.7 11.2 74 6 11   102.16     LegendNANA
17:00 15.6 11.1 75 5 15   102.15     LegendNANA
18:00 15.7 11.1 74 6 16   102.16     LegendNANA
19:00 15.9 11.6 76 8 15   102.16     LegendNANA
20:00 16.2 12.4 78 7 15   102.21     LegendNANA
21:00 15.9 12.7 81 13 7   102.23     LegendNANA
22:00 16.0 13.8 87 7 6   102.25     LegendNANA
23:00 16.2 13.0 82 7 18   102.23     LegendNANA

Notes on Data Quality.

Legend

  • E = Estimated
  • M = Missing
  • NA = Not Available
  • ‡ = Partner data that is not subject to review by the National Climate Archives
Date modified: